Location: ???????
(54.6339°N, 39.4245°E)
Time: 13:24:34
(UTC+00:00)

IRIDIUM 106 - Pass Details

Date: 19 May 2025
Orbit: 776 x 779 km, 86.4° (Epoch: 20 June)

Event Time Altitude Azimuth Distance (km) Brightness Sun altitude
Exits shadow 22:59:14 17° 199° (SSW) 1,874 5.7 -12.4°
Maximum altitude 23:03:13 64° 278° (W) 864 4.5 -12.1°
Drops below altitude 10° 23:08:26 10° 0° (N) 2,345 7.9 -11.8°
Sets 23:10:49 0° 4° (N) 3,277 9.0 -11.6°
